SIA128 WSSS-WMKK

Flight info

Callsign SIA128
Flight time 0h 33m
Altitude 24000
Route MASBO3A MASBO A457 GUPTA GUPTA3J
Aircraft A359/H-SDE2E3GHIJ1J3J4J5LM1ORWXY/LB1D1

Departure

Time 2026-05-01 13:31
Airport Singapore Changi Airport (WSSS)

Arrival

Time 2026-05-01 14:05
Airport Kuala Lumpur International Airport (WMKK)
Time Latitude Longitude Altitude Speed Heading
2026-05-01 13:01 1.35233 103.98907 37 ft 0 kts 293°
2026-05-01 13:21 1.35224 103.98931 35 ft 2 kts 289°
2026-05-01 13:21 1.35219 103.98946 34 ft 2 kts 283°
2026-05-01 13:21 1.35217 103.98963 33 ft 2 kts 264°
2026-05-01 13:21 1.35223 103.98978 33 ft 2 kts 216°
2026-05-01 13:22 1.35231 103.98983 32 ft 1 kts 204°
2026-05-01 13:22 1.35232 103.98983 32 ft 0 kts 204°
2026-05-01 13:25 1.35216 103.98976 37 ft 6 kts 203°
2026-05-01 13:25 1.35153 103.98953 37 ft 12 kts 192°
2026-05-01 13:25 1.35064 103.98959 37 ft 14 kts 173°
2026-05-01 13:26 1.34957 103.98972 37 ft 17 kts 172°
2026-05-01 13:26 1.34862 103.99042 37 ft 18 kts 115°
2026-05-01 13:26 1.34818 103.99114 37 ft 4 kts 161°
2026-05-01 13:26 1.34786 103.99107 37 ft 8 kts 199°
2026-05-01 13:27 1.34704 103.99073 37 ft 18 kts 203°
2026-05-01 13:27 1.34555 103.99009 37 ft 28 kts 203°
2026-05-01 13:27 1.34171 103.98847 37 ft 32 kts 203°
2026-05-01 13:28 1.33759 103.98673 37 ft 20 kts 202°
2026-05-01 13:28 1.33639 103.98623 37 ft 20 kts 203°
2026-05-01 13:29 1.33354 103.98503 37 ft 24 kts 202°
2026-05-01 13:29 1.33015 103.98361 37 ft 22 kts 202°
2026-05-01 13:30 1.32902 103.98503 37 ft 4 kts 44°
2026-05-01 13:31 1.33389 103.98713 37 ft 104 kts 22°
2026-05-01 13:31 1.36390 103.99914 1541 ft 171 kts 22°
2026-05-01 13:32 1.38892 104.00865 2103 ft 215 kts 21°
2026-05-01 13:33 1.43509 104.02887 3052 ft 273 kts 26°
2026-05-01 13:33 1.47168 104.04581 3684 ft 306 kts 24°
2026-05-01 13:34 1.51507 104.04917 4515 ft 326 kts 351°
2026-05-01 13:34 1.55625 104.03041 5584 ft 335 kts 315°
2026-05-01 13:35 1.57769 103.98935 6644 ft 341 kts 290°
2026-05-01 13:35 1.58608 103.96708 7132 ft 344 kts 290°
2026-05-01 13:35 1.60318 103.92199 8133 ft 350 kts 290°
2026-05-01 13:36 1.61191 103.89919 8644 ft 353 kts 291°
2026-05-01 13:36 1.62074 103.87620 9119 ft 355 kts 291°
2026-05-01 13:36 1.63863 103.82971 10063 ft 362 kts 291°
2026-05-01 13:37 1.64769 103.80616 10477 ft 365 kts 291°
2026-05-01 13:37 1.65671 103.78271 10898 ft 367 kts 291°
2026-05-01 13:37 1.66591 103.75883 11332 ft 370 kts 291°
2026-05-01 13:37 1.67520 103.73471 11755 ft 373 kts 291°
2026-05-01 13:38 1.69397 103.68596 12607 ft 378 kts 291°
2026-05-01 13:38 1.70344 103.66136 13030 ft 381 kts 292°
2026-05-01 13:38 1.71299 103.63655 13421 ft 384 kts 292°
2026-05-01 13:39 1.72262 103.61156 13810 ft 387 kts 292°
2026-05-01 13:39 1.73231 103.58642 14163 ft 389 kts 292°
2026-05-01 13:39 1.74203 103.56117 14534 ft 391 kts 292°
2026-05-01 13:39 1.75181 103.53573 14902 ft 393 kts 292°
2026-05-01 13:40 1.76151 103.51054 15259 ft 395 kts 292°
2026-05-01 13:40 1.77140 103.48482 15629 ft 397 kts 292°
2026-05-01 13:40 1.78135 103.45899 16008 ft 399 kts 292°
2026-05-01 13:40 1.79134 103.43302 16365 ft 402 kts 292°
2026-05-01 13:41 1.80139 103.40691 16728 ft 404 kts 292°
2026-05-01 13:41 1.81149 103.38065 17083 ft 406 kts 292°
2026-05-01 13:41 1.82166 103.35423 17450 ft 408 kts 292°
2026-05-01 13:41 1.83187 103.32771 17784 ft 410 kts 292°
2026-05-01 13:42 1.84214 103.30103 18139 ft 412 kts 291°
2026-05-01 13:42 1.85352 103.27464 18444 ft 414 kts 296°
2026-05-01 13:42 1.86595 103.24902 18732 ft 416 kts 297°
2026-05-01 13:42 1.87877 103.22303 19016 ft 418 kts 297°
2026-05-01 13:43 1.89164 103.19688 19311 ft 420 kts 297°
2026-05-01 13:43 1.90457 103.17059 19597 ft 422 kts 297°
2026-05-01 13:43 1.91755 103.14416 19896 ft 424 kts 297°
2026-05-01 13:43 1.93057 103.11763 20176 ft 426 kts 297°
2026-05-01 13:44 1.94365 103.09097 20453 ft 428 kts 297°
2026-05-01 13:44 1.95679 103.06415 20749 ft 430 kts 297°
2026-05-01 13:44 1.96997 103.03728 21025 ft 432 kts 297°
2026-05-01 13:44 1.98323 103.01024 21284 ft 434 kts 297°
2026-05-01 13:45 1.99633 102.98351 21516 ft 435 kts 297°
2026-05-01 13:45 2.00965 102.95634 21771 ft 436 kts 297°
2026-05-01 13:45 2.02301 102.92908 21910 ft 437 kts 297°
2026-05-01 13:45 2.03637 102.90183 21925 ft 437 kts 297°
2026-05-01 13:46 2.04976 102.87453 21923 ft 437 kts 297°
2026-05-01 13:46 2.06312 102.84727 21924 ft 437 kts 297°
2026-05-01 13:46 2.07644 102.81993 21923 ft 437 kts 297°
2026-05-01 13:46 2.08973 102.79266 21927 ft 437 kts 297°
2026-05-01 13:47 2.10303 102.76536 21924 ft 437 kts 297°
2026-05-01 13:47 2.11636 102.73804 21924 ft 437 kts 297°
2026-05-01 13:47 2.12967 102.71076 21925 ft 437 kts 297°
2026-05-01 13:47 2.14281 102.68378 21924 ft 437 kts 297°
2026-05-01 13:48 2.15460 102.65598 21550 ft 432 kts 292°
2026-05-01 13:48 2.16501 102.62835 20504 ft 420 kts 291°
2026-05-01 13:48 2.17500 102.60097 18976 ft 422 kts 290°
2026-05-01 13:48 2.18503 102.57327 17229 ft 425 kts 290°
2026-05-01 13:49 2.19507 102.54540 15448 ft 426 kts 290°
2026-05-01 13:49 2.20508 102.51760 13815 ft 423 kts 290°
2026-05-01 13:49 2.21497 102.49013 12103 ft 416 kts 290°
2026-05-01 13:49 2.22475 102.46299 11028 ft 411 kts 290°
2026-05-01 13:50 2.23426 102.43657 10785 ft 394 kts 290°
2026-05-01 13:50 2.24328 102.41146 10655 ft 375 kts 290°
2026-05-01 13:50 2.25178 102.38780 10532 ft 358 kts 290°
2026-05-01 13:50 2.26001 102.36491 10407 ft 342 kts 290°
2026-05-01 13:51 2.26788 102.34301 10283 ft 328 kts 290°
2026-05-01 13:51 2.27543 102.32200 10138 ft 315 kts 290°
2026-05-01 13:51 2.28278 102.30158 9816 ft 311 kts 290°
2026-05-01 13:51 2.29007 102.28130 9431 ft 308 kts 290°
2026-05-01 13:52 2.29727 102.26128 9067 ft 304 kts 290°
2026-05-01 13:52 2.30437 102.24152 8722 ft 300 kts 290°
2026-05-01 13:52 2.31141 102.22194 8397 ft 299 kts 290°
2026-05-01 13:52 2.31840 102.20247 8054 ft 297 kts 290°
2026-05-01 13:53 2.32526 102.18341 7714 ft 294 kts 290°
2026-05-01 13:53 2.33888 102.14547 7263 ft 280 kts 290°
2026-05-01 13:53 2.34533 102.12750 7140 ft 269 kts 290°
2026-05-01 13:54 2.35154 102.11022 7009 ft 259 kts 290°
2026-05-01 13:54 2.35755 102.09352 6834 ft 252 kts 290°
2026-05-01 13:54 2.36344 102.07712 6570 ft 249 kts 290°
2026-05-01 13:54 2.36928 102.06088 6306 ft 246 kts 290°
2026-05-01 13:55 2.37504 102.04487 6028 ft 243 kts 290°
2026-05-01 13:55 2.38069 102.02918 5705 ft 244 kts 290°
2026-05-01 13:55 2.38634 102.01319 5391 ft 243 kts 290°
2026-05-01 13:55 2.39189 101.99744 4913 ft 239 kts 290°
2026-05-01 13:56 2.39743 101.98178 4400 ft 240 kts 290°
2026-05-01 13:56 2.40301 101.96600 4060 ft 240 kts 290°
2026-05-01 13:56 2.40930 101.95061 3754 ft 239 kts 301°
2026-05-01 13:56 2.41914 101.93755 3570 ft 231 kts 313°
2026-05-01 13:57 2.42969 101.92581 3538 ft 230 kts 313°
2026-05-01 13:57 2.44014 101.91427 3525 ft 216 kts 313°
2026-05-01 13:57 2.44990 101.90340 3527 ft 206 kts 313°
2026-05-01 13:57 2.45936 101.89274 3532 ft 205 kts 313°
2026-05-01 13:58 2.46980 101.88314 3532 ft 204 kts 324°
2026-05-01 13:58 2.48133 101.87496 3535 ft 203 kts 328°
2026-05-01 13:58 2.49304 101.86703 3531 ft 203 kts 328°
2026-05-01 13:58 2.50477 101.85918 3533 ft 203 kts 328°
2026-05-01 13:59 2.51645 101.85125 3529 ft 203 kts 327°
2026-05-01 13:59 2.52807 101.84326 3522 ft 200 kts 327°
2026-05-01 13:59 2.53899 101.83572 3553 ft 184 kts 327°
2026-05-01 13:59 2.54928 101.82865 3531 ft 182 kts 328°
2026-05-01 14:00 2.55974 101.82154 3494 ft 182 kts 328°
2026-05-01 14:00 2.57022 101.81454 3308 ft 181 kts 329°
2026-05-01 14:00 2.58065 101.80757 3061 ft 180 kts 328°
2026-05-01 14:00 2.59099 101.80059 2822 ft 178 kts 328°
2026-05-01 14:01 2.60121 101.79369 2583 ft 176 kts 328°
2026-05-01 14:01 2.61127 101.78692 2345 ft 172 kts 328°
2026-05-01 14:01 2.62092 101.78041 2125 ft 162 kts 328°
2026-05-01 14:01 2.63002 101.77428 1924 ft 152 kts 328°
2026-05-01 14:02 2.63838 101.76864 1733 ft 143 kts 328°
2026-05-01 14:02 2.64651 101.76302 1593 ft 143 kts 327°
2026-05-01 14:02 2.65467 101.75735 1377 ft 142 kts 328°
2026-05-01 14:02 2.66290 101.75190 1202 ft 141 kts 326°
2026-05-01 14:03 2.67092 101.74627 1008 ft 141 kts 326°
2026-05-01 14:03 2.67898 101.74092 845 ft 138 kts 328°
2026-05-01 14:03 2.68702 101.73567 708 ft 138 kts 327°
2026-05-01 14:03 2.69492 101.73024 534 ft 137 kts 326°
2026-05-01 14:04 2.70269 101.72509 353 ft 135 kts 327°
2026-05-01 14:04 2.71046 101.71987 198 ft 135 kts 327°
2026-05-01 14:04 2.71824 101.71462 56 ft 131 kts 328°
2026-05-01 14:04 2.72290 101.71158 56 ft 110 kts 326°
2026-05-01 14:05 2.73006 101.70684 56 ft 78 kts 326°
2026-05-01 14:05 2.73409 101.70411 56 ft 63 kts 326°
2026-05-01 14:05 2.73727 101.70198 56 ft 48 kts 326°
2026-05-01 14:05 2.73951 101.70045 56 ft 28 kts 325°
2026-05-01 14:06 2.74055 101.70018 61 ft 13 kts 28°
2026-05-01 14:06 2.74109 101.70086 58 ft 14 kts 55°
2026-05-01 14:06 2.74161 101.70126 59 ft 6 kts 355°
2026-05-01 14:06 2.74209 101.70103 58 ft 10 kts 328°
2026-05-01 14:07 2.74279 101.70057 57 ft 14 kts 326°
2026-05-01 14:07 2.74365 101.69999 57 ft 16 kts 327°
2026-05-01 14:07 2.74410 101.70009 63 ft 4 kts 57°
2026-05-01 14:08 2.74494 101.70143 64 ft 16 kts 56°
2026-05-01 14:08 2.74558 101.70240 63 ft 17 kts 56°
2026-05-01 14:08 2.74632 101.70350 63 ft 21 kts 56°
2026-05-01 14:08 2.74715 101.70474 65 ft 22 kts 56°
2026-05-01 14:09 2.74803 101.70606 69 ft 23 kts 56°
2026-05-01 14:09 2.74896 101.70743 84 ft 25 kts 56°
2026-05-01 14:09 2.74998 101.70887 85 ft 25 kts 54°
2026-05-01 14:09 2.75060 101.70978 81 ft 7 kts 63°
2026-05-01 14:10 2.75059 101.70992 81 ft 2 kts 99°
2026-05-01 14:10 2.75043 101.71018 84 ft 7 kts 133°
2026-05-01 14:10 2.74997 101.71046 84 ft 7 kts 150°
2026-05-01 14:10 2.74953 101.71072 84 ft 8 kts 148°
2026-05-01 14:11 2.74907 101.71101 84 ft 8 kts 147°
2026-05-01 14:11 2.74883 101.71155 82 ft 5 kts 68°
2026-05-01 14:11 2.74897 101.71180 84 ft 3 kts 54°
2026-05-01 14:12 2.74902 101.71186 84 ft 0 kts 54°